Showing default

CONNECTA IOT-6, 62709

Orbit data source: Space-Track

CONNECTA IOT-6, 62709 is a payload satellite owned by Plan-S (TR) in SSO that was launched on Tue, 14 Jan 2025 UTC via an FALCON 9 launch vehicle from the Air Force Western Test Range (AFWTR). Payload-class satellites include a variety of spacecraft equipped with specific instruments for various scientific and technological missions. These include communications satellites like Starlink; space stations such as the ISS; scientific satellites like the Hubble; Earth observation satellites from companies like Planet Labs, Umbra, and HawkEye 360; GPS; miniature CubeSats for education and research; and military/defense satellites.

Loading next visibility...
Identifier
62709, 2025-009DE
Orbit
SSO
Country
Flag of UnknownUnknown / TURK
Related business
Manufacturer
Plan-S
Mission
Operational Commercial Communications
Bus & Motor
CUBESAT 6U, Unknown motor
Mass
10 kg wet, 10 kg dry
Launch date (UTC)
2025-01-14 (1 year ago)
Launch vehicle
FALCON 9
Launch site
Air Force Western Test Range (AFWTR)
Object type
Payload
Rocket body
Debris
Shape & HBR
Box, 2.2 m
Radar Cross Section
0.080 m², Medium (>0.1 m² and < 1m²)

Expand to show TLE details & history
Last TLE update: 12 hours ago

TLE from 12 hours ago
0 CONNECTA IOT-6
1 62709U 25009DE  26034.18122210  .00001492  00000-0  14574-3 0  9992
2 62709  97.7136 115.0787 0001298 158.7763 201.3511 14.93869892 57357
Epoch: 2026-02-03T04:20Z
TLE epoch observation values (Epoch: 2026-02-03T04:20:57.589Z)
Latitude
-0.00003°
Longitude
-83.52709°
Altitude
589.771 km
Speed
7.565 km/s
True Right ascension
07h 40m 18s
True Declination
0° 00' 00"
Sunlit
Object was in full shadow at epoch
Visualization orbit readout
Latitude
Unknown
Longitude
Unknown
Altitude
Unknown
Speed
Unknown
Apparent Right ascension
Unknown
Apparent Declination
Unknown
Sunlit
N/A
Visualization observer readout
Local Sidereal Time
18:04:16
Azimuth
Unknown
Elevation
Unknown
Doppler factor
Unknown
Orbital elements
Apogee altitude
583.8 km
Perigee altitude
581.993 km
Semi-major axis
6,961.034 km
Eccentricity
0.00013
Inclination
97.7136°
RAAN
115.0787°
Arg. of periapsis
158.7763°
True anomaly
201.34569°
Mean anomaly
201.3511°
Eccentric anomaly
201.34839°
Mean motion
3.73708 °/min
Orbital period
96.33 mins
BSTAR
0.00014574
Loading maneuver chart data...
Computing Atmospheric mass density...
Loading historical data...
Loading historical data...
Loading historical data...
Loading historical data...
Loading historical data...
Loading historical data...
Loading historical data...

Documentation

Showing up to 5 results
|